Oshkosh, WI

10:12 PM CST on November 19, 2019 (GMT -0600)
Wittman Regional

Weather History for KOSH - October, 2019

Change the Weather History Date:

Monday, October 14, 2019

  Actual Average Record
Temperature  
Mean Temperature 41 °F -  
Max Temperature 50 °F 60 °F 81 °F (1962)
Min Temperature 32 °F 39 °F 24 °F (1979)
Degree Days  
Heating Degree Days 24    
Moisture  
Dew Point 32 °F    
Average Humidity 75    
Maximum Humidity 92    
Minimum Humidity 46    
Precipitation  
Precipitation 0.00 in - - ()
Sea Level Pressure  
Sea Level Pressure 30.01 in    
Wind  
Wind Speed 6 mph (WSW)    
Max Wind Speed 13 mph    
Max Gust Speed -    
Visibility 10 miles    
Events      
Averages and records for this station are not official NWS values.
T = Trace of Precipitation, MM = Missing Value Source: NWS Daily Summary

Daily Weather History Graph

Daily Weather History Graph

Search for Another Location

Airport or City:

Astronomy

Oct. 14, 2019 Rise Set
Actual Time 7:07 AM CDT 6:12 PM CDT
Civil Twilight 6:38 AM CDT 6:41 PM CDT
Nautical Twilight 6:04 AM CDT 7:14 PM CDT
Astronomical Twilight 5:31 AM CDT 7:48 PM CDT
Moon 7:02 PM CDT (10/14) 7:38 AM CDT (10/14)
Length of Visible Light 12h 03m
Length of Day
11h 05m
Full, 99% of the Moon is Illuminated
Oct 14
Full
Oct 21
Last Quarter
Oct 27
New
Nov 4
First Quarter
Nov 12
Full

Hourly Weather History & Observations

Time (CDT) Temp. Windchill Dew Point Humidity Pressure Visibility Wind Dir Wind Speed Gust Speed Precip Events Conditions
12:53 AM 36.0 °F 31.1 °F 30.9 °F 82% 29.91 in 10.0 mi West 5.8 mph - N/A   Clear
1:53 AM 35.1 °F 31.0 °F 30.9 °F 85% 29.92 in 10.0 mi West 4.6 mph - N/A   Clear
2:53 AM 35.1 °F 30.1 °F 30.9 °F 85% 29.94 in 10.0 mi West 5.8 mph - N/A   Clear
3:53 AM 34.0 °F 28.0 °F 30.0 °F 85% 29.94 in 10.0 mi West 6.9 mph - N/A   Clear
4:53 AM 33.1 °F 26.9 °F 30.0 °F 89% 29.96 in 10.0 mi West 6.9 mph - N/A   Clear
5:53 AM 32.0 °F 27.5 °F 30.0 °F 92% 29.98 in 10.0 mi West 4.6 mph - N/A   Clear
6:53 AM 32.0 °F 26.4 °F 30.0 °F 92% 30.00 in 10.0 mi West 5.8 mph - N/A   Clear
7:53 AM 33.1 °F 27.7 °F 30.0 °F 89% 30.02 in 10.0 mi West 5.8 mph - N/A   Clear
8:53 AM 36.0 °F 28.5 °F 33.1 °F 89% 30.05 in 10.0 mi West 10.4 mph - N/A   Mostly Cloudy
9:53 AM 37.9 °F 33.5 °F 33.1 °F 83% 30.05 in 10.0 mi West 5.8 mph - N/A   Overcast
10:53 AM 39.9 °F 35.1 °F 34.0 °F 79% 30.06 in 10.0 mi WNW 6.9 mph - N/A   Partly Cloudy
11:53 AM 44.1 °F 39.0 °F 34.0 °F 68% 30.06 in 10.0 mi West 9.2 mph - N/A   Clear
12:53 PM 46.9 °F - 34.0 °F 61% 30.05 in 10.0 mi WNW 9.2 mph - N/A   Partly Cloudy
1:53 PM 48.0 °F - 30.0 °F 50% 30.04 in 10.0 mi WNW 12.7 mph - N/A   Partly Cloudy
2:53 PM 48.9 °F - 30.9 °F 50% 30.03 in 10.0 mi West 6.9 mph - N/A   Clear
3:53 PM 50.0 °F - 30.0 °F 46% 30.03 in 10.0 mi WSW 5.8 mph - N/A   Clear
4:53 PM 48.9 °F - 30.0 °F 48% 30.02 in 10.0 mi SW 6.9 mph - N/A   Clear
5:53 PM 48.0 °F - 30.0 °F 50% 30.03 in 10.0 mi Calm Calm - N/A   Clear
6:53 PM 39.9 °F - 33.1 °F 77% 30.04 in 10.0 mi Calm Calm - N/A   Clear
7:53 PM 39.0 °F 36.8 °F 33.1 °F 79% 30.04 in 10.0 mi South 3.5 mph - N/A   Clear
8:53 PM 39.9 °F 37.8 °F 33.1 °F 77% 30.04 in 10.0 mi South 3.5 mph - N/A   Clear
9:53 PM 37.9 °F 34.4 °F 32.0 °F 79% 30.04 in 10.0 mi South 4.6 mph - N/A   Clear
10:53 PM 37.0 °F 32.4 °F 32.0 °F 82% 30.04 in 10.0 mi South 5.8 mph - N/A   Clear
11:53 PM 36.0 °F - 32.0 °F 86% 30.04 in 10.0 mi Calm Calm - N/A   Clear